When you browse on this site, cookies collect data to enhance your experience and personalize the content and advertising you see.
Visit our Privacy Policy to learn more. By continuing to use the site, you agree to this use of cookies and data.
  • In United Kingdom
  • List of Countries
  • For 7 days
  • Water Temperature
  • Satellite Maps
  • Weather Map
  • Weather Widgets
  • user-avatar
    Login

    Hourly Weather Cardiff

    Today, 10 December, Monday

    Time Temperature Precipitation Wind Pressure Humidity
    00:00 +5°C° 0 mm 6 mps 766 mmHg 85%
    01:00 +5°C° 0 mm 6 mps 767 mmHg 85%
    02:00 +5°C° 0 mm 6 mps 767 mmHg 86%
    03:00 +6°C° 0 mm 5 mps 767 mmHg 87%
    04:00 +5°C° 0 mm 5 mps 767 mmHg 87%
    05:00 +5°C° 0 mm 5 mps 768 mmHg 88%
    06:00 +5°C° 0 mm 5 mps 768 mmHg 88%
    07:00 +5°C° 0 mm 4 mps 768 mmHg 88%
    08:00 +5°C° 0 mm 4 mps 769 mmHg 88%
    09:00 +5°C° 0 mm 4 mps 769 mmHg 88%
    10:00 +6°C° 0 mm 4 mps 769 mmHg 84%
    11:00 +7°C° 0 mm 4 mps 769 mmHg 80%
    12:00 +8°C° 0 mm 4 mps 769 mmHg 76%
    13:00 +9°C° 0 mm 3 mps 769 mmHg 77%
    14:00 +9°C° 0 mm 3 mps 769 mmHg 79%
    15:00 +8°C° 0 mm 2 mps 769 mmHg 81%
    16:00 +8°C° 0 mm 2 mps 769 mmHg 83%
    17:00 +8°C° 0 mm 2 mps 769 mmHg 84%
    18:00 +8°C° 0 mm 1 mps 769 mmHg 86%
    19:00 +8°C° 0 mm 1 mps 768 mmHg 87%
    20:00 +7°C° 0 mm 2 mps 768 mmHg 87%
    21:00 +7°C° 0 mm 2 mps 768 mmHg 88%
    22:00 +7°C° 0 mm 2 mps 768 mmHg 89%
    23:00 +7°C° 0 mm 2 mps 768 mmHg 90%

    Tomorrow, 11 December, Tuesday

    Time Temperature Precipitation Wind Pressure Humidity
    00:00 +7°C° 0 mm 3 mps 768 mmHg 91%
    01:00 +8°C° 0 mm 2 mps 767 mmHg 92%
    02:00 +8°C° 0 mm 2 mps 767 mmHg 93%
    03:00 +8°C° 0 mm 2 mps 767 mmHg 94%
    04:00 +8°C° 0 mm 2 mps 766 mmHg 95%
    05:00 +8°C° 0 mm 3 mps 766 mmHg 95%
    06:00 +8°C° 0 mm 3 mps 765 mmHg 95%
    07:00 +8°C° 0 mm 3 mps 765 mmHg 95%
    08:00 +8°C° 0 mm 3 mps 765 mmHg 95%
    09:00 +9°C° 0 mm 3 mps 765 mmHg 95%
    10:00 +8°C° 0 mm 4 mps 765 mmHg 92%
    11:00 +10°C° 0 mm 4 mps 765 mmHg 89%
    12:00 +9°C° 0 mm 5 mps 764 mmHg 87%
    13:00 +9°C° 0 mm 5 mps 764 mmHg 87%
    14:00 +9°C° 0 mm 5 mps 763 mmHg 87%
    15:00 +9°C° 0 mm 5 mps 762 mmHg 86%
    16:00 +9°C° 0 mm 5 mps 762 mmHg 88%
    17:00 +8°C° 0 mm 5 mps 762 mmHg 89%
    18:00 +8°C° 0 mm 6 mps 761 mmHg 90%
    19:00 +8°C° 0 mm 6 mps 761 mmHg 89%
    20:00 +8°C° 0 mm 6 mps 761 mmHg 89%
    21:00 +8°C° 0 mm 6 mps 760 mmHg 88%
    22:00 +8°C° 0.1 mm 6 mps 760 mmHg 88%
    23:00 +8°C° 0.1 mm 6 mps 760 mmHg 88%

    Day after tomorrow, 12 December, Wednesday

    Time Temperature Precipitation Wind Pressure Humidity
    00:00 +8°C° 0.1 mm 6 mps 760 mmHg 88%
    01:00 +7°C° 0.2 mm 6 mps 760 mmHg 89%
    02:00 +7°C° 0.2 mm 5 mps 760 mmHg 90%
    03:00 +7°C° 0.2 mm 5 mps 760 mmHg 91%
    04:00 +7°C° 0.1 mm 5 mps 760 mmHg 91%
    05:00 +7°C° 0.1 mm 5 mps 760 mmHg 92%
    06:00 +6°C° 0.1 mm 4 mps 760 mmHg 92%
    07:00 +6°C° 0.1 mm 4 mps 761 mmHg 92%
    08:00 +6°C° 0.1 mm 4 mps 761 mmHg 91%
    09:00 +6°C° 0.1 mm 4 mps 761 mmHg 90%
    10:00 +7°C° 0.2 mm 5 mps 761 mmHg 89%
    11:00 +7°C° 0.2 mm 6 mps 761 mmHg 87%
    12:00 +7°C° 0.2 mm 6 mps 761 mmHg 86%
    13:00 +7°C° 0.1 mm 6 mps 760 mmHg 85%
    14:00 +7°C° 0.1 mm 6 mps 760 mmHg 84%
    15:00 +7°C° 0.1 mm 6 mps 759 mmHg 84%
    16:00 +5°C° 0.1 mm 7 mps 759 mmHg 83%
    17:00 +5°C° 0.1 mm 7 mps 759 mmHg 83%
    18:00 +5°C° 0.1 mm 7 mps 758 mmHg 83%
    19:00 +5°C° 0.3 mm 8 mps 758 mmHg 84%
    20:00 +4°C° 0.3 mm 8 mps 758 mmHg 84%
    21:00 +4°C° 0.3 mm 8 mps 757 mmHg 85%
    22:00 +4°C° 0.5 mm 8 mps 757 mmHg 86%
    23:00 +4°C° 0.5 mm 8 mps 756 mmHg 86%

    13 December, Thursday

    Time Temperature Precipitation Wind Pressure Humidity
    00:00 +4°C° 0.5 mm 7 mps 755 mmHg 87%
    01:00 +4°C° 0.4 mm 8 mps 755 mmHg 87%
    02:00 +4°C° 0.4 mm 8 mps 754 mmHg 87%
    03:00 +4°C° 0.4 mm 8 mps 753 mmHg 88%
    04:00 +4°C° 0.6 mm 8 mps 752 mmHg 87%
    05:00 +4°C° 0.6 mm 8 mps 752 mmHg 86%
    06:00 +2°C° 0.6 mm 9 mps 751 mmHg 86%
    07:00 +2°C° 0.6 mm 9 mps 751 mmHg 86%
    08:00 +2°C° 0.6 mm 9 mps 751 mmHg 85%
    09:00 +2°C° 0.6 mm 9 mps 750 mmHg 85%
    10:00 +2°C° 0.8 mm 9 mps 750 mmHg 85%
    11:00 +2°C° 0.8 mm 9 mps 750 mmHg 85%
    12:00 +2°C° 0.8 mm 9 mps 750 mmHg 85%
    13:00 +2°C° 0.4 mm 9 mps 751 mmHg 86%
    14:00 +2°C° 0.4 mm 9 mps 751 mmHg 86%
    15:00 +2°C° 0.4 mm 8 mps 751 mmHg 86%
    16:00 +2°C° 0.2 mm 8 mps 752 mmHg 86%
    17:00 +2°C° 0.2 mm 8 mps 753 mmHg 87%
    18:00 +1°C° 0.2 mm 8 mps 754 mmHg 87%
    19:00 +2°C° 0.1 mm 7 mps 754 mmHg 87%
    20:00 +2°C° 0.1 mm 7 mps 755 mmHg 87%
    21:00 +2°C° 0.1 mm 7 mps 756 mmHg 87%
    22:00 +2°C° 0.1 mm 6 mps 756 mmHg 88%
    23:00 +2°C° 0.1 mm 5 mps 757 mmHg 88%

    14 December, Friday

    Time Temperature Precipitation Wind Pressure Humidity
    00:00 +2°C° 0.1 mm 5 mps 757 mmHg 88%
    01:00 +2°C° 0 mm 5 mps 758 mmHg 88%
    02:00 +3°C° 0 mm 4 mps 758 mmHg 89%
    03:00 +1°C° 0 mm 4 mps 758 mmHg 89%
    04:00 +1°C° 0 mm 4 mps 759 mmHg 89%
    05:00 +2°C° 0 mm 3 mps 759 mmHg 89%
    06:00 +2°C° 0 mm 3 mps 759 mmHg 89%
    07:00 +2°C° 0 mm 3 mps 760 mmHg 89%
    08:00 +2°C° 0 mm 3 mps 760 mmHg 89%
    09:00 +3°C° 0 mm 3 mps 760 mmHg 89%
    10:00 +3°C° 0 mm 4 mps 761 mmHg 89%
    11:00 +4°C° 0 mm 4 mps 761 mmHg 89%
    12:00 +5°C° 0 mm 4 mps 761 mmHg 89%
    13:00 +5°C° 0.1 mm 4 mps 760 mmHg 90%
    14:00 +5°C° 0.1 mm 5 mps 760 mmHg 90%
    15:00 +6°C° 0.1 mm 5 mps 760 mmHg 91%
    16:00 +6°C° 0 mm 5 mps 760 mmHg 91%
    17:00 +6°C° 0 mm 5 mps 760 mmHg 91%
    18:00 +6°C° 0 mm 5 mps 760 mmHg 90%
    19:00 +7°C° 0 mm 6 mps 760 mmHg 91%
    20:00 +6°C° 0 mm 7 mps 759 mmHg 91%
    21:00 +7°C° 0 mm 8 mps 759 mmHg 91%
    22:00 +7°C° 0.5 mm 8 mps 759 mmHg 92%
    23:00 +8°C° 0.5 mm 9 mps 758 mmHg 92%

    15 December, Saturday

    Time Temperature Precipitation Wind Pressure Humidity
    00:00 +8°C° 0.5 mm 9 mps 757 mmHg 92%
    01:00 +10°C° 0.9 mm 9 mps 756 mmHg 93%
    02:00 +11°C° 0.9 mm 9 mps 756 mmHg 93%
    03:00 +11°C° 0.9 mm 9 mps 755 mmHg 93%
    04:00 +12°C° 0.2 mm 9 mps 754 mmHg 92%
    05:00 +12°C° 0.2 mm 9 mps 754 mmHg 91%
    06:00 +13°C° 0.2 mm 9 mps 753 mmHg 91%
    07:00 +13°C° 0.3 mm 10 mps 753 mmHg 90%
    08:00 +13°C° 0.3 mm 10 mps 753 mmHg 90%
    09:00 +13°C° 0.3 mm 11 mps 753 mmHg 90%
    10:00 +13°C° 1.4 mm 11 mps 752 mmHg 89%
    11:00 +13°C° 1.4 mm 12 mps 752 mmHg 89%
    12:00 +13°C° 1.4 mm 12 mps 751 mmHg 89%
    13:00 +12°C° 0.5 mm 11 mps 752 mmHg 86%
    14:00 +11°C° 0.5 mm 11 mps 753 mmHg 83%
    15:00 +11°C° 0.5 mm 10 mps 753 mmHg 81%
    16:00 +10°C° 0 mm 9 mps 754 mmHg 81%
    17:00 +8°C° 0 mm 7 mps 756 mmHg 82%
    18:00 +7°C° 0 mm 6 mps 757 mmHg 83%
    19:00 +7°C° 0.2 mm 6 mps 757 mmHg 84%
    20:00 +7°C° 0.2 mm 6 mps 758 mmHg 84%
    21:00 +6°C° 0.2 mm 7 mps 758 mmHg 84%
    22:00 +6°C° 0.4 mm 7 mps 759 mmHg 84%
    23:00 +6°C° 0.4 mm 7 mps 759 mmHg 83%
    Show more